GW2484 Weather Reports


time (UTC)temp
C
wind
direction
speed
KPH
gust
KPH
rain 1hr
cm
rain 24hr
cm
rain mn
cm
humidity
%
barometer
mb
20260510120509 16 27 1.6 4.8 0.00 0.00 0.00 84 1014.8
20260510120015 16 11 0.0 4.8 0.00 0.00 0.00 84 1014.7
20260510115510 16 11 1.6 8.0 0.00 0.00 0.00 84 1014.6
20260510115014 16 52 4.8 8.0 0.00 0.00 0.00 83 1014.4
20260510114527 16 191 1.6 3.2 0.00 0.00 0.00 83 1014.4
20260510114014 16 197 0.0 3.2 0.00 0.00 0.00 82 1014.2
20260510113508 16 145 1.6 3.2 0.00 0.00 0.00 82 1014.0
20260510113026 16 2 0.0 3.2 0.00 0.00 0.00 82 1014.0
20260510112511 16 9 1.6 3.2 0.00 0.00 0.00 81 1013.8
20260510112009 17 8 0.0 3.2 0.00 0.00 0.00 81 1013.8
20260510111528 17 8 0.0 3.2 0.00 0.00 0.00 81 1013.6
20260510111009 17 8 0.0 3.2 0.00 0.00 0.00 80 1013.6
20260510110510 17 8 0.0 4.8 0.00 0.00 0.00 80 1013.6
20260510110026 17 110 0.0 4.8 0.00 0.00 0.00 80 1013.5
20260510105507 17 110 0.0 4.8 0.00 0.00 0.00 80 1013.4
20260510105018 17 89 1.6 4.8 0.00 0.00 0.00 79 1013.3
20260510104524 17 89 1.6 4.8 0.00 0.00 0.00 78 1013.4
20260510104007 17 89 1.6 4.8 0.00 0.00 0.00 78 1013.4
20260510103510 17 84 1.6 3.2 0.00 0.00 0.00 78 1013.4
20260510103023 17 84 0.0 3.2 0.00 0.00 0.00 78 1013.4
20260510102509 17 84 1.6 4.8 0.00 0.00 0.00 77 1013.3
20260510102004 17 85 1.6 4.8 0.00 0.00 0.00 77 1013.1
20260510101508 17 85 0.0 8.0 0.00 0.00 0.00 77 1013.1
20260510101004 17 85 1.6 8.0 0.00 0.00 0.00 77 1013.1
20260510100504 17 82 1.6 8.0 0.00 0.00 0.00 76 1013.0
20260510100006 17 81 1.6 6.4 0.00 0.00 0.00 76 1013.1
20260510095510 18 78 1.6 6.4 0.00 0.00 0.00 75 1013.1
20260510095006 18 79 3.2 6.4 0.00 0.00 0.00 75 1013.0
20260510094510 18 60 3.2 6.4 0.00 0.00 0.00 75 1013.0
20260510094004 18 65 1.6 6.4 0.00 0.00 0.00 74 1012.9
20260510093504 18 63 3.2 8.0 0.00 0.00 0.00 74 1013.0
20260510093009 18 73 0.0 8.0 0.00 0.00 0.00 73 1013.1
20260510092504 18 50 1.6 6.4 0.00 0.00 0.00 73 1013.1
20260510092004 18 51 3.2 6.4 0.00 0.00 0.00 72 1012.9
20260510091513 18 41 0.0 0.0 0.00 0.00 0.00 71 1012.8
20260510091006 18 40 0.0 4.8 0.00 0.00 0.00 71 1012.7
20260510090504 18 41 1.6 6.4 0.00 0.00 0.00 71 1012.6
20260510090009 18 40 1.6 6.4 0.00 0.00 0.00 71 1012.3
20260510085504 18 36 4.8 6.4 0.00 0.00 0.00 70 1012.1
20260510085004 18 35 0.0 3.2 0.00 0.00 0.00 69 1012.0
20260510084508 19 35 1.6 4.8 0.00 0.00 0.00 69 1011.9
20260510084006 19 35 1.6 6.4 0.00 0.00 0.00 69 1011.8
20260510083506 19 356 1.6 8.0 0.00 0.00 0.00 68 1011.7
20260510083007 19 33 3.2 8.0 0.00 0.00 0.00 68 1011.4
20260510082504 19 4 3.2 11.3 0.00 0.00 0.00 68 1011.3
20260510082004 19 324 1.6 11.3 0.00 0.00 0.00 67 1011.1
20260510081512 19 341 3.2 11.3 0.00 0.00 0.00 67 1011.1
20260510081007 19 335 1.6 11.3 0.00 0.00 0.00 67 1010.8
20260510080505 19 349 3.2 12.9 0.00 0.00 0.00 67 1010.6
20260510080010 19 285 4.8 12.9 0.00 0.00 0.00 68 1010.6
20260510075504 19 358 4.8 14.5 0.00 0.00 0.00 67 1009.5
20260510075005 19 84 3.2 16.1 0.00 0.00 0.00 67 1008.8
20260510074511 19 128 6.4 24.1 0.00 0.00 0.00 67 1008.7
20260510074004 19 129 9.7 25.7 0.00 0.00 0.00 67 1008.4
20260510073503 19 121 12.9 25.7 0.00 0.00 0.00 68 1008.8
20260510073014 19 133 12.9 24.1 0.00 0.00 0.00 68 1010.3
20260510072503 20 226 6.4 20.9 0.00 0.00 0.00 68 1011.5
20260510070012 20 159 14.5 25.7 0.00 0.00 0.00 63 1011.8
20260510065507 20 162 14.5 25.7 0.00 0.00 0.00 62 1011.9
20260510065009 20 177 6.4 19.3 0.00 0.00 0.00 63 1013.2
20260510064531 20 194 6.4 22.5 0.00 0.00 0.00 64 1014.0
20260510064008 20 296 9.7 22.5 0.00 0.00 0.00 65 1014.3
20260510063508 20 218 3.2 12.9 0.00 0.00 0.00 65 1013.9
20260510063014 20 300 3.2 12.9 0.00 0.00 0.00 65 1013.5
20260510062506 20 191 3.2 11.3 0.00 0.00 0.00 65 1013.4
20260510062007 20 141 1.6 3.2 0.00 0.00 0.00 64 1013.0
20260510061516 20 141 0.0 3.2 0.00 0.00 0.00 63 1013.0
20260510061008 20 141 1.6 4.8 0.00 0.00 0.00 63 1013.1
20260510060507 20 141 3.2 4.8 0.00 0.00 0.00 64 1013.2
20260510060018 20 41 0.0 6.4 0.00 0.00 0.00 64 1013.3
20260510055508 20 41 1.6 6.4 0.00 0.00 0.00 63 1013.4
20260510055007 21 27 1.6 6.4 0.00 0.00 0.00 64 1013.6
20260510054518 21 325 0.0 4.8 0.00 0.00 0.00 63 1013.7
20260510054007 21 325 0.0 4.8 0.00 0.00 0.00 63 1013.8
20260510053511 21 323 3.2 8.0 0.00 0.00 0.00 63 1013.9
20260510053037 21 325 3.2 8.0 0.00 0.00 0.00 63 1013.9
20260510052505 21 312 3.2 8.0 0.00 0.00 0.00 64 1013.9
20260510052006 21 329 3.2 4.8 0.00 0.00 0.00 64 1013.9
20260510051523 21 330 0.0 6.4 0.00 0.00 0.00 64 1013.7
20260510051009 20 331 3.2 6.4 0.00 0.00 0.00 64 1013.6
20260510050508 20 326 3.2 6.4 0.00 0.00 0.00 64 1013.4
20260510050017 20 21 1.6 4.8 0.00 0.00 0.00 64 1013.2
20260510045507 20 94 0.0 4.8 0.00 0.00 0.00 65 1012.8
20260510045011 20 130 0.0 3.2 0.00 0.00 0.00 65 1012.6
20260510044514 20 131 0.0 3.2 0.00 0.00 0.00 65 1012.5
20260510044008 20 131 0.0 1.6 0.00 0.00 0.00 65 1012.4
20260510043510 20 131 0.0 0.0 0.00 0.00 0.00 63 1012.3
20260510043023 20 131 0.0 0.0 0.00 0.00 0.00 64 1012.3
20260510042507 20 131 0.0 0.0 0.00 0.00 0.00 64 1012.2
20260510042006 20 131 0.0 0.0 0.00 0.00 0.00 64 1012.1
20260510041520 20 131 0.0 0.0 0.00 0.00 0.00 65 1012.0
20260510041012 20 131 0.0 0.0 0.00 0.00 0.00 65 1012.0
20260510040507 20 131 0.0 0.0 0.00 0.00 0.00 64 1012.0
20260510040022 20 131 0.0 0.0 0.00 0.00 0.00 64 1011.9
20260510035507 20 131 0.0 1.6 0.00 0.00 0.00 63 1011.9
20260510035010 20 131 0.0 1.6 0.00 0.00 0.00 63 1011.8
20260510034522 20 131 0.0 3.2 0.00 0.00 0.00 62 1011.7
20260510034010 20 131 0.0 3.2 0.00 0.00 0.00 62 1011.8
20260510033508 20 131 0.0 3.2 0.00 0.03 0.00 62 1011.8
20260510032507 20 131 0.0 1.6 0.00 0.03 0.00 62 1011.9
20260510032017 20 131 0.0 1.6 0.00 0.03 0.00 61 1011.9
20260510031528 20 131 0.0 1.6 0.00 0.03 0.00 60 1011.8
20260510031010 20 131 1.6 1.6 0.00 0.03 0.00 60 1011.8
20260510030510 20 131 0.0 1.6 0.00 0.03 0.00 60 1011.9
20260510030020 20 131 0.0 1.6 0.00 0.03 0.00 59 1011.8
20260510025507 20 131 0.0 1.6 0.00 0.03 0.00 59 1011.7
20260510025012 21 131 0.0 1.6 0.00 0.03 0.00 58 1011.7
20260510024525 21 131 0.0 3.2 0.00 0.03 0.00 58 1011.4
20260510024010 21 131 0.0 3.2 0.00 0.03 0.00 58 1011.2
20260510023507 21 131 0.0 3.2 0.00 0.03 0.00 56 1011.0
20260510023024 21 131 0.0 3.2 0.00 0.03 0.00 55 1010.7
20260510022510 21 131 0.0 3.2 0.00 0.03 0.00 54 1010.5
20260510022007 21 131 0.0 3.2 0.00 0.03 0.00 54 1010.3
20260510021529 21 131 0.0 3.2 0.00 0.03 0.00 53 1010.2
20260510021011 22 131 0.0 3.2 0.00 0.03 0.00 52 1010.1
20260510020510 22 131 0.0 3.2 0.00 0.03 0.00 51 1010.0
20260510020029 22 131 0.0 3.2 0.00 0.03 0.00 50 1009.9
20260510015508 22 131 0.0 3.2 0.00 0.03 0.00 49 1009.8
20260510015008 22 131 0.0 3.2 0.00 0.03 0.00 49 1009.7
20260510014504 22 131 0.0 3.2 0.00 0.03 0.00 48 1009.6
20260510014007 23 131 0.0 3.2 0.00 0.03 0.00 48 1009.7
20260510013510 23 131 0.0 3.2 0.00 0.03 0.00 47 1009.6
20260510013008 23 131 0.0 3.2 0.00 0.03 0.00 47 1009.5
20260510012505 23 131 0.0 3.2 0.00 0.03 0.00 46 1009.4
20260510012007 24 131 0.0 3.2 0.00 0.03 0.00 44 1009.3
20260510011522 24 131 0.0 3.2 0.00 0.03 0.00 44 1009.2
20260510011007 25 131 0.0 4.8 0.00 0.03 0.00 43 1009.3
20260510010505 25 130 0.0 4.8 0.00 0.03 0.00 42 1009.2
20260510010021 25 130 1.6 6.4 0.00 0.03 0.00 42 1009.2
20260510005507 25 151 1.6 6.4 0.00 0.03 0.00 41 1009.1
20260510005005 25 129 1.6 8.0 0.00 0.03 0.00 41 1009.1
20260510004524 25 137 1.6 9.7 0.00 0.03 0.00 42 1009.0
20260510004004 26 137 3.2 9.7 0.00 0.25 0.00 42 1009.0
20260510003508 26 91 3.2 8.0 0.00 0.41 0.00 43 1008.9
20260510003014 26 126 1.6 8.0 0.00 0.41 0.00 43 1008.9
20260510002505 26 137 6.4 8.0 0.00 0.41 0.00 42 1008.8
20260510002007 26 150 3.2 11.3 0.00 0.43 0.00 43 1008.9
20260510001512 26 116 4.8 11.3 0.00 0.46 0.00 42 1008.9
20260510001004 26 133 1.6 14.5 0.00 0.51 0.00 42 1008.9
20260510000507 26 151 3.2 14.5 0.00 0.66 0.00 41 1008.9
20260510000011 26 122 6.4 12.9 0.00 1.19 0.00 41 1008.9
20260509235509 27 142 6.4 14.5 0.00 1.27 0.00 41 1008.9
20260509235009 27 125 6.4 14.5 0.00 1.27 0.00 41 1009.0
20260509234507 27 96 3.2 9.7 0.00 1.40 0.00 40 1009.0
20260509234009 27 135 4.8 11.3 0.00 1.52 0.00 39 1009.1
20260509233509 27 115 4.8 11.3 0.00 1.52 0.00 38 1009.1
20260509233007 27 129 3.2 12.9 0.00 1.52 0.00 37 1009.1
20260509232507 27 129 6.4 16.1 0.00 1.52 0.00 35 1009.1
20260509232005 27 137 9.7 16.1 0.00 1.52 0.00 34 1009.2
20260509231523 27 174 9.7 16.1 0.00 1.52 0.00 32 1009.2
20260509231006 28 110 4.8 14.5 0.00 1.52 0.00 31 1009.2
20260509230504 28 102 6.4 19.3 0.00 1.52 0.00 30 1009.3
20260509230022 28 123 6.4 19.3 0.00 1.52 0.00 32 1009.3
20260509225507 28 104 4.8 17.7 0.00 1.52 0.00 32 1009.4
20260509225003 28 66 3.2 17.7 0.00 1.52 0.00 31 1009.4
20260509224520 28 106 6.4 14.5 0.00 1.52 0.00 29 1009.4
20260509224007 28 95 6.4 17.7 0.00 1.52 0.00 28 1009.4
20260509223512 29 101 9.7 17.7 0.00 1.52 0.00 30 1009.4
20260509223018 28 179 4.8 22.5 0.00 1.52 0.00 32 1009.3
20260509222503 28 139 3.2 22.5 0.00 1.52 0.00 31 1009.4
20260509222010 28 74 8.0 17.7 0.00 1.52 0.00 31 1009.5
20260509221517 29 58 4.8 16.1 0.00 1.52 0.00 33 1009.5
20260509221005 29 73 4.8 19.3 0.00 1.52 0.00 34 1009.5
20260509220507 29 92 9.7 19.3 0.00 1.52 0.00 29 1009.6
20260509220012 29 103 3.2 17.7 0.00 1.52 0.00 34 1009.5
20260509215511 29 129 9.7 17.7 0.00 1.52 0.00 31 1009.6
20260509215008 28 159 1.6 17.7 0.00 1.52 0.00 34 1009.6
20260509214512 28 48 4.8 16.1 0.00 1.52 0.00 36 1009.6
20260509214007 28 117 8.0 14.5 0.00 1.52 0.00 37 1009.7
20260509213507 28 106 3.2 16.1 0.00 1.52 0.00 41 1009.6
20260509213012 28 162 6.4 16.1 0.00 1.52 0.00 35 1009.8
20260509212508 28 130 8.0 16.1 0.00 1.52 0.00 37 1009.8
20260509212007 28 84 6.4 16.1 0.00 1.52 0.00 40 1009.9
20260509211527 28 140 8.0 16.1 0.00 1.52 0.00 39 1010.0
20260509211010 28 131 6.4 14.5 0.00 1.52 0.00 41 1010.1
20260509210506 28 81 4.8 14.5 0.00 1.52 0.00 41 1010.1
20260509210024 28 71 3.2 14.5 0.00 1.52 0.00 41 1010.2
20260509205509 28 29 6.4 14.5 0.00 1.52 0.00 34 1010.3
20260509205009 28 66 9.7 14.5 0.00 1.52 0.00 38 1010.3
20260509204525 29 75 6.4 11.3 0.00 1.52 0.00 35 1010.4
20260509204011 28 185 6.4 12.9 0.00 1.52 0.00 30 1010.4
20260509203516 28 80 6.4 12.9 0.00 1.52 0.00 30 1010.4
20260509203030 28 155 6.4 19.3 0.00 1.52 0.00 29 1010.5
20260509202507 28 76 11.3 19.3 0.00 1.52 0.00 36 1010.4
20260509202011 28 103 4.8 16.1 0.00 1.52 0.00 31 1010.4
20260509201518 28 195 4.8 12.9 0.00 1.52 0.00 34 1010.4
20260509201010 28 119 8.0 12.9 0.00 1.52 0.00 32 1010.6
20260509200515 28 149 3.2 12.9 0.00 1.52 0.00 32 1010.6
20260509200016 28 149 6.4 12.9 0.00 1.52 0.00 32 1010.7
20260509195511 28 115 1.6 11.3 0.00 1.52 0.00 37 1010.9
20260509195006 28 182 6.4 11.3 0.00 1.52 0.00 36 1010.8
20260509194515 28 156 4.8 9.7 0.00 1.52 0.00 36 1010.9
20260509194002 28 158 1.6 9.7 0.00 1.52 0.00 38 1011.0
20260509193507 28 179 3.2 14.5 0.00 1.52 0.00 36 1011.1
20260509193013 28 116 4.8 14.5 0.00 1.52 0.00 33 1011.1
20260509192503 28 92 8.0 14.5 0.00 1.52 0.00 28 1011.2
20260509192007 28 124 6.4 14.5 0.00 1.52 0.00 30 1011.2
20260509191510 28 99 1.6 12.9 0.00 1.52 0.00 32 1011.1
20260509191007 28 122 3.2 12.9 0.00 1.52 0.00 40 1011.1
20260509190507 27 123 3.2 14.5 0.00 1.52 0.00 39 1011.1
20260509190006 27 156 4.8 14.5 0.00 1.52 0.00 36 1011.1
20260509185503 27 129 1.6 9.7 0.00 1.52 0.00 43 1011.1
20260509185007 27 196 1.6 11.3 0.00 1.52 0.00 46 1011.1
20260509184509 27 196 3.2 11.3 0.00 1.52 0.00 42 1011.2
20260509184008 27 155 6.4 11.3 0.00 1.52 0.00 46 1011.2
20260509183507 27 212 3.2 11.3 0.00 1.52 0.00 46 1011.2
20260509183004 27 101 6.4 11.3 0.00 1.52 0.00 41 1011.3
20260509182506 27 127 4.8 11.3 0.00 1.52 0.00 47 1011.4
20260509182010 27 108 6.4 12.9 0.00 1.52 0.00 48 1011.4
20260509181504 26 131 3.2 12.9 0.00 1.52 0.00 52 1011.4
20260509181008 27 230 4.8 12.9 0.00 1.52 0.00 52 1011.4
20260509180506 27 139 3.2 11.3 0.00 1.52 0.00 54 1011.4
20260509180021 26 168 1.6 11.3 0.00 1.52 0.00 47 1011.5
20260509175504 26 142 4.8 11.3 0.00 1.52 0.00 51 1011.6
20260509175004 26 98 3.2 11.3 0.00 1.52 0.00 52 1011.7
20260509174541 26 156 1.6 11.3 0.00 1.52 0.00 52 1011.7
20260509174007 25 200 3.2 11.3 0.00 1.52 0.00 52 1011.8
20260509173504 26 152 3.2 9.7 0.00 1.52 0.00 56 1011.8
20260509173016 25 206 3.2 17.7 0.00 1.52 0.00 51 1011.8
20260509172510 25 178 1.6 17.7 0.00 1.52 0.00 53 1011.9
20260509172011 25 195 6.4 11.3 0.00 1.52 0.00 56 1012.0
20260509171510 25 230 3.2 11.3 0.00 1.52 0.00 63 1012.1
20260509171010 25 147 3.2 11.3 0.00 1.52 0.00 60 1012.2
20260509170507 25 177 1.6 8.0 0.00 1.52 0.00 63 1012.1
20260509170012 24 126 3.2 8.0 0.00 1.52 0.00 66 1012.1
20260509165504 23 181 3.2 8.0 0.00 1.52 0.00 69 1012.1
20260509165009 24 160 3.2 14.5 0.00 1.52 0.00 67 1012.3
20260509164509 23 153 1.6 14.5 0.00 1.52 0.00 67 1012.3
20260509164011 23 165 8.0 14.5 0.00 1.52 0.00 68 1012.2
20260509163504 23 171 3.2 12.9 0.00 1.52 0.00 69 1012.2
20260509163006 23 146 3.2 12.9 0.00 1.52 0.00 69 1012.2
20260509162513 23 175 3.2 11.3 0.00 1.52 0.00 71 1012.2
20260509162004 23 185 3.2 9.7 0.00 1.52 0.00 71 1012.1
20260509161503 23 165 3.2 9.7 0.00 1.52 0.00 71 1012.0
20260509161012 22 160 6.4 8.0 0.00 1.52 0.00 70 1012.1
20260509160507 22 155 3.2 6.4 0.00 1.52 0.00 72 1012.0
20260509160022 22 187 4.8 6.4 0.00 1.52 0.00 75 1012.0
20260509155504 22 137 3.2 6.4 0.00 1.52 0.00 76 1012.0
20260509155004 21 201 3.2 6.4 0.00 1.52 0.00 77 1011.9
20260509154519 21 174 3.2 4.8 0.00 1.52 0.00 80 1011.9
20260509154010 21 203 3.2 4.8 0.00 1.52 0.00 77 1011.9
20260509153505 21 165 1.6 4.8 0.00 1.52 0.00 78 1011.8
20260509153033 21 176 1.6 6.4 0.00 1.52 0.00 78 1011.8
20260509152505 21 162 1.6 6.4 0.00 1.52 0.00 80 1011.9
20260509152013 20 164 3.2 11.3 0.00 1.52 0.00 80 1011.9
20260509151518 20 123 1.6 11.3 0.00 1.52 0.00 80 1011.9
20260509151003 20 158 3.2 9.7 0.00 1.52 0.00 84 1012.0
20260509150511 19 167 1.6 4.8 0.00 1.52 0.00 83 1012.0
20260509150022 19 170 0.0 4.8 0.00 1.52 0.00 84 1011.9
20260509145503 18 189 0.0 4.8 0.00 1.52 0.00 85 1011.9
20260509145007 18 178 1.6 6.4 0.00 1.52 0.00 86 1012.0
20260509144512 18 185 1.6 6.4 0.00 1.52 0.00 87 1011.9
20260509144008 18 199 4.8 6.4 0.00 1.52 0.00 88 1011.9
20260509143508 18 148 1.6 6.4 0.00 1.52 0.00 90 1011.9
20260509143010 17 149 3.2 9.7 0.00 1.52 0.00 91 1011.9
20260509142507 17 206 4.8 9.7 0.00 1.52 0.00 91 1011.9
20260509142007 17 156 1.6 8.0 0.00 1.52 0.00 92 1011.9
20260509141526 17 169 3.2 8.0 0.00 1.52 0.00 93 1012.0
20260509141011 17 176 1.6 4.8 0.00 1.52 0.00 93 1011.9
20260509140507 17 188 1.6 4.8 0.00 1.52 0.00 93 1011.9
20260509140033 16 194 1.6 3.2 0.00 1.52 0.00 94 1011.9
20260509135508 16 202 1.6 3.2 0.00 1.52 0.00 94 1011.8
20260509135009 16 203 1.6 3.2 0.00 1.52 0.00 94 1011.8
20260509134523 16 203 0.0 4.8 0.00 1.52 0.00 94 1011.7
20260509134006 16 204 0.0 6.4 0.00 1.52 0.00 94 1011.5
20260509133507 16 158 0.0 6.4 0.00 1.52 0.00 94 1011.3
20260509133022 15 164 3.2 6.4 0.00 1.52 0.00 94 1011.2
20260509132508 15 81 1.6 3.2 0.00 1.52 0.00 94 1011.1
20260509132011 15 81 1.6 3.2 0.00 1.52 0.00 94 1011.1
20260509131523 15 150 0.0 3.2 0.00 1.52 0.00 94 1011.1
20260509131007 14 53 0.0 0.0 0.00 1.52 0.00 94 1011.1
20260509130507 14 73 0.0 0.0 0.00 1.52 0.00 94 1011.1
20260509130016 13 73 0.0 0.0 0.00 1.52 0.00 94 1011.2
20260509125516 13 100 0.0 1.6 0.00 1.52 0.00 94 1011.1
20260509125007 13 215 0.0 3.2 0.00 1.52 0.00 94 1010.9
20260509124515 13 215 0.0 3.2 0.00 1.52 0.00 94 1010.9
20260509124007 13 192 0.0 0.0 0.00 1.52 0.00 94 1010.9
20260509123507 12 192 0.0 3.2 0.00 1.52 0.00 93 1010.9
20260509123012 12 192 0.0 3.2 0.00 1.52 0.00 93 1010.9
20260509122510 12 192 0.0 3.2 0.00 1.52 0.00 93 1010.8
20260509122006 12 192 1.6 3.2 0.00 1.52 0.00 93 1010.9
20260509121528 12 226 0.0 3.2 0.00 1.52 0.00 93 1010.8
20260509121012 11 226 0.0 0.0 0.00 1.52 0.00 93 1010.8